Flag for Iran

Past Weather in Yazd, Iran — Yesterday and Last 2 Weeks

Now
82 °F

Clear.


Feels Like: 81 °F
Forecast: 101 / 77 °F
Wind: 9 mph from Northwest

Location: Yazd Airport

Current Time: Jul 15, 2020 at 5:19:41 am

Latest Report: Jul 15, 2020 at 4:30 am


Visibility: 10 mi

Pressure: 29.89 "Hg (26.03 "Hg at 1218m altitude)

Humidity: 26%

Dew Point: 45 °F

Location of YazdLocation

Past Weather in Yazd — Graph

°F

Yazd Temperature Yesterday

Maximum temperature yesterday: 102 °F (at 3:30 pm)
Minimum temperature yesterday: 90 °F (at 1:30 am)
Average temperature yesterday: 97 °F

High & Low Weather Summary for the Past Weeks

 TemperatureHumidityPressure
High108 °F (Jul 1, 4:30 pm)32% (Jul 8, 6:30 am)29.95 "Hg (Jul 8, 6:30 am)
Low75 °F (Jul 6, 6:30 am)9% (Jul 1, 3:30 pm)29.56 "Hg (Jul 13, 5:30 pm)
Average92 °F15%29.79 "Hg
* Reported Jun 30 3:30 am — Jul 15 3:30 am, Yazd. Weather by CustomWeather, © 2020

Note: Actual official high and low records may vary slightly from our data, if they occured in-between our weather recording intervals... More about our weather records

Yazd Weather History for the Previous 24 Hours

Scroll right to see more
 ConditionsComfort  
Time TempWeatherWind HumidityBarometerVisibility
3:30 am
Wed, Jul 15
84 °FPassing clouds.12 mph23%29.86 "HgN/A
2:30 am84 °FPassing clouds.12 mph19%29.83 "HgN/A
12:30 am88 °FPassing clouds.9 mph15%29.83 "HgN/A
11:30 pm
Tue, Jul 14
91 °FPassing clouds.9 mph14%29.80 "HgN/A
10:30 pm93 °FPassing clouds.7 mph12%29.80 "HgN/A
9:30 pm93 °FPassing clouds.5 mph12%29.77 "HgN/A
8:30 pm95 °FPassing clouds.2 mph12%29.74 "HgN/A
7:30 pm99 °FScattered clouds.7 mph10%29.74 "HgN/A
7:00 pm100 °FScattered clouds.7 mph10%29.74 "HgN/A
6:30 pm100 °FScattered clouds.12 mph10%29.71 "HgN/A
6:00 pm102 °FScattered clouds.7 mph9%29.71 "HgN/A
5:30 pm102 °FScattered clouds.7 mph9%29.71 "HgN/A
5:00 pm102 °FScattered clouds.5 mph10%29.74 "HgN/A
4:30 pm102 °FScattered clouds.7 mph11%29.74 "HgN/A
3:30 pm102 °FScattered clouds.9 mph10%29.74 "HgN/A
2:30 pm100 °FScattered clouds.2 mph14%29.77 "HgN/A
1:30 pm100 °FPassing clouds.9 mph14%29.80 "HgN/A
12:30 pm99 °FPassing clouds.16 mph15%29.80 "HgN/A
12:00 pm97 °FPassing clouds.14 mph17%29.80 "HgN/A
11:30 am95 °FPassing clouds.14 mph18%29.83 "HgN/A
11:00 am95 °FPassing clouds.16 mph18%29.83 "HgN/A
10:30 am93 °FPassing clouds.16 mph19%29.83 "HgN/A
9:30 am91 °FPassing clouds.16 mph18%29.80 "HgN/A
Weather by CustomWeather, © 2020

See weather overview